GW1469 Weather Reports


time (UTC)temp
F
wind
direction
speed
knots
gust
knots
rain 1hr
in
rain 24hr
in
rain mn
in
humidity
%
barometer
mb
20260508183338 69 180 1.7 2.6 0.00 0.00 0.00 35 1024.7
20260508182736 68 224 3.5 3.5 0.00 0.00 0.00 37 1024.7
20260508181532 70 102 2.6 2.6 0.00 0.00 0.00 36 1025.0
20260508180921 69 57 0.0 0.0 0.00 0.00 0.00 34 1025.0
20260508180349 66 109 0.0 0.9 0.00 0.00 0.00 38 1025.0
20260508175740 68 116 0.9 0.9 0.00 0.00 0.00 36 1025.3
20260508175143 69 330 1.7 1.7 0.00 0.00 0.00 33 1025.3
20260508174511 70 45 0.9 0.9 0.00 0.00 0.00 33 1025.3
20260508173923 69 126 0.9 1.7 0.00 0.00 0.00 35 1025.0
20260508173320 67 68 1.7 1.7 0.00 0.00 0.00 36 1025.3
20260508172740 66 106 0.0 0.0 0.00 0.00 0.00 37 1025.7
20260508172148 65 117 1.7 2.6 0.00 0.00 0.00 38 1025.7
20260508170941 66 142 1.7 1.7 0.00 0.00 0.00 36 1025.7
20260508170314 66 157 1.7 1.7 0.00 0.00 0.00 42 1026.0
20260508165709 64 84 0.0 0.9 0.00 0.00 0.00 42 1026.0
20260508165120 64 106 0.9 0.9 0.00 0.00 0.00 43 1026.4
20260508164533 64 138 1.7 1.7 0.00 0.00 0.00 40 1026.4
20260508163331 66 106 0.0 0.0 0.00 0.00 0.00 46 1026.7
20260508162723 65 122 0.0 0.0 0.00 0.00 0.00 40 1026.7
20260508162130 63 94 0.0 0.9 0.00 0.00 0.00 46 1026.7
20260508161515 64 92 2.6 3.5 0.00 0.00 0.00 42 1026.7
20260508160931 65 121 0.9 0.9 0.00 0.00 0.00 47 1026.7
20260508160338 64 66 0.9 0.9 0.00 0.00 0.00 42 1026.7
20260508155110 64 236 4.3 6.1 0.00 0.00 0.00 49 1027.0
20260508154521 65 104 0.9 1.7 0.00 0.00 0.00 44 1027.0
20260508153937 63 88 0.9 0.9 0.00 0.00 0.00 51 1027.0
20260508153342 60 74 0.9 0.9 0.00 0.00 0.00 54 1027.4
20260508152746 60 196 2.6 2.6 0.00 0.00 0.00 53 1027.4
20260508151536 60 114 0.9 1.7 0.00 0.00 0.00 52 1027.0
20260508150945 61 108 1.7 1.7 0.00 0.00 0.00 43 1027.7
20260508145746 59 106 0.0 0.0 0.00 0.00 0.00 60 1027.4
20260508145148 59 90 1.7 2.6 0.00 0.00 0.00 61 1027.4
20260508143942 57 149 0.9 1.7 0.00 0.00 0.00 63 1027.7
20260508142727 53 139 0.9 0.9 0.00 0.00 0.00 75 1027.7
20260508142149 52 154 1.7 1.7 0.00 0.00 0.00 77 1027.7
20260508141518 52 133 0.9 0.9 0.00 0.00 0.00 83 1027.7
20260508140936 53 136 0.9 1.7 0.00 0.00 0.00 81 1027.7
20260508135748 50 90 0.0 0.0 0.00 0.00 0.00 85 1027.7
20260508135146 48 99 0.9 0.9 0.00 0.00 0.00 91 1027.4
20260508134522 45 95 0.0 0.0 0.00 0.00 0.00 96 1027.7
20260508133916 44 95 0.9 0.9 0.00 0.00 0.00 99 1027.7
20260508133312 44 108 0.0 0.0 0.00 0.00 0.00 99 1027.7
20260508132726 42 108 0.0 0.0 0.00 0.00 0.00 99 1027.7
20260508132122 43 95 0.9 0.9 0.00 0.00 0.00 99 1027.7
20260508130308 41 87 0.0 0.0 0.00 0.00 0.00 99 1027.7
20260508125126 41 129 0.0 0.9 0.00 0.00 0.00 99 1027.7
20260508123936 40 134 0.9 0.9 0.00 0.00 0.00 99 1027.7
20260508123350 40 124 0.0 0.0 0.00 0.00 0.00 99 1027.7
20260508122731 40 124 0.0 0.9 0.00 0.00 0.00 99 1027.7
20260508122120 40 124 0.0 0.0 0.00 0.00 0.00 99 1027.7
20260508121537 40 124 0.0 0.0 0.00 0.00 0.00 99 1027.7
20260508120920 39 124 0.0 0.0 0.00 0.00 0.00 99 1027.7
20260508115710 40 125 0.0 0.0 0.00 0.00 0.00 99 1027.7
20260508115148 40 117 0.0 0.0 0.00 0.00 0.00 99 1027.4
20260508114519 39 117 0.0 0.0 0.00 0.00 0.00 99 1027.0
20260508113930 39 117 0.0 0.0 0.00 0.00 0.00 99 1027.4
20260508113316 39 117 0.0 0.0 0.00 0.00 0.00 99 1027.4
20260508112719 39 128 0.0 0.0 0.00 0.00 0.00 99 1027.4
20260508112143 39 133 0.0 0.9 0.00 0.00 0.00 99 1027.4
20260508111542 39 128 0.0 0.0 0.00 0.00 0.00 99 1027.0
20260508110922 39 128 0.0 0.0 0.00 0.00 0.00 99 1027.0
20260508110326 39 128 0.0 0.0 0.00 0.00 0.00 99 1027.0
20260508105142 39 128 0.0 0.0 0.00 0.00 0.00 99 1027.0
20260508103936 39 128 0.0 0.0 0.00 0.00 0.00 99 1026.7
20260508103338 39 128 0.0 0.0 0.00 0.00 0.00 99 1026.7
20260508102715 39 128 0.0 0.0 0.00 0.00 0.00 99 1026.7
20260508102115 39 128 0.0 0.0 0.00 0.00 0.00 99 1026.7
20260508101512 39 128 0.0 0.0 0.00 0.00 0.00 99 1026.7
20260508100938 40 128 0.0 0.0 0.00 0.00 0.00 99 1026.7
20260508100331 40 128 0.0 0.0 0.00 0.00 0.00 99 1026.7
20260508095748 40 128 0.0 0.0 0.00 0.00 0.00 99 1026.7
20260508095130 40 128 0.0 0.0 0.00 0.00 0.00 99 1026.7
20260508094522 40 128 0.0 0.0 0.00 0.00 0.00 99 1026.7
20260508093943 39 128 0.0 0.0 0.00 0.00 0.00 99 1026.7
20260508092722 40 128 0.0 0.0 0.00 0.00 0.00 99 1026.7
20260508092142 40 128 0.0 0.0 0.00 0.00 0.00 99 1026.7
20260508091528 40 128 0.0 0.0 0.00 0.00 0.00 99 1026.7
20260508090932 40 129 0.0 0.0 0.00 0.00 0.00 99 1026.7
20260508085139 40 111 0.0 0.0 0.00 0.00 0.00 99 1026.7
20260508084547 41 111 0.0 0.9 0.00 0.00 0.00 99 1026.7
20260508083912 41 111 0.0 0.0 0.00 0.00 0.00 99 1026.4
20260508083313 41 111 0.0 0.0 0.00 0.00 0.00 99 1026.4
20260508082735 41 111 0.0 0.0 0.00 0.00 0.00 99 1026.4
20260508082150 41 110 0.0 0.0 0.00 0.00 0.00 99 1026.0
20260508081537 41 110 0.0 0.0 0.00 0.00 0.00 99 1026.0
20260508080328 41 110 0.0 0.0 0.00 0.00 0.00 99 1026.4
20260508075731 41 110 0.0 0.0 0.00 0.00 0.00 99 1026.4
20260508075120 41 110 0.0 0.0 0.00 0.00 0.00 99 1026.4
20260508074529 42 110 0.0 0.0 0.00 0.00 0.00 99 1026.4
20260508073327 42 110 0.0 0.0 0.00 0.00 0.00 99 1026.4
20260508072733 42 110 0.0 0.0 0.00 0.00 0.00 99 1026.0
20260508072115 42 110 0.0 0.0 0.00 0.00 0.00 99 1026.0
20260508071537 42 110 0.0 0.0 0.00 0.00 0.00 99 1026.0
20260508070951 42 110 0.0 0.0 0.00 0.00 0.00 99 1026.0
20260508070338 42 110 0.0 0.0 0.00 0.00 0.00 99 1026.0
20260508065738 42 110 0.0 0.0 0.00 0.00 0.00 99 1025.7
20260508065133 42 110 0.0 0.0 0.00 0.00 0.00 99 1026.0
20260508064520 41 110 0.0 0.0 0.00 0.00 0.00 99 1026.0
20260508063925 41 110 0.0 0.0 0.00 0.00 0.00 99 1026.0
20260508063318 41 110 0.0 0.0 0.00 0.00 0.00 99 1026.0
20260508062742 41 110 0.0 0.0 0.00 0.00 0.00 99 1026.0
20260508062146 41 110 0.0 0.0 0.00 0.00 0.00 99 1026.0
20260508061530 42 110 0.0 0.9 0.00 0.00 0.00 99 1026.0
20260508060909 42 110 0.0 0.0 0.00 0.00 0.00 99 1026.0
20260508060341 42 110 0.0 0.0 0.00 0.00 0.00 99 1026.4
20260508055751 42 110 0.0 0.0 0.00 0.00 0.00 99 1026.4
20260508055141 42 110 0.0 0.0 0.00 0.00 0.00 99 1026.4
20260508054544 42 110 0.0 0.0 0.00 0.00 0.00 99 1026.4
20260508052738 42 110 0.0 0.0 0.00 0.00 0.00 99 1026.7
20260508052132 42 110 0.0 0.0 0.00 0.00 0.00 99 1026.4
20260508051526 42 110 0.0 0.0 0.00 0.00 0.00 99 1026.0
20260508050945 42 110 0.0 0.0 0.00 0.00 0.00 99 1026.0
20260508050309 43 110 0.0 0.0 0.00 0.00 0.00 99 1026.0
20260508045724 42 110 0.0 0.0 0.00 0.00 0.00 99 1026.4
20260508045128 43 110 0.0 0.0 0.00 0.00 0.00 99 1026.0
20260508044542 43 110 0.0 0.0 0.00 0.00 0.00 99 1026.4
20260508043936 43 110 0.0 0.0 0.00 0.00 0.00 99 1026.4
20260508043347 43 110 0.0 0.0 0.00 0.00 0.00 99 1026.0
20260508042723 43 110 0.0 0.0 0.00 0.00 0.00 99 1026.0
20260508042141 43 110 0.0 0.0 0.00 0.00 0.00 99 1026.0
20260508041532 43 110 0.0 0.0 0.00 0.00 0.00 99 1025.3
20260508040318 43 110 0.0 0.0 0.00 0.00 0.01 99 1025.7
20260508035120 43 110 0.0 0.0 0.00 0.00 0.01 99 1025.7
20260508034526 43 110 0.0 0.0 0.00 0.00 0.01 99 1025.7
20260508033916 43 110 0.0 0.0 0.00 0.00 0.01 99 1025.3
20260508033321 43 110 0.0 0.0 0.00 0.00 0.01 99 1025.7
20260508032734 43 110 0.0 0.0 0.00 0.00 0.01 99 1025.7
20260508032147 43 110 0.0 0.0 0.00 0.00 0.01 99 1025.7
20260508031526 44 110 0.0 0.0 0.00 0.00 0.01 99 1025.3
20260508030931 44 110 0.0 0.0 0.00 0.00 0.01 99 1025.7
20260508030311 44 110 0.0 0.0 0.00 0.00 0.01 99 1025.3
20260508025719 44 110 0.0 0.0 0.00 0.00 0.01 99 1025.7
20260508025114 44 110 0.0 0.0 0.00 0.00 0.01 99 1025.3
20260508024525 44 110 0.0 0.0 0.00 0.00 0.01 99 1025.3
20260508023946 45 110 0.0 0.0 0.00 0.00 0.01 99 1025.0
20260508023341 45 109 0.0 0.0 0.00 0.00 0.01 99 1025.3
20260508022723 45 110 0.0 0.0 0.00 0.00 0.01 99 1025.0
20260508021515 45 109 0.0 0.0 0.00 0.00 0.01 99 1024.7
20260508020945 45 110 0.0 0.0 0.00 0.00 0.01 99 1024.7
20260508020349 46 109 0.0 0.0 0.00 0.00 0.01 98 1024.3
20260508015738 46 110 0.0 0.0 0.00 0.00 0.01 98 1024.3
20260508015145 46 110 0.0 0.0 0.00 0.00 0.01 98 1024.3
20260508014517 46 110 0.0 0.0 0.00 0.00 0.01 98 1024.3
20260508012725 47 109 0.0 0.0 0.00 0.00 0.01 97 1024.3
20260508011528 48 110 0.0 0.0 0.00 0.00 0.01 95 1024.0
20260508010935 48 109 0.0 0.0 0.00 0.00 0.01 95 1024.0
20260508010349 48 110 0.0 0.0 0.00 0.00 0.01 94 1023.7
20260508005736 49 110 0.0 0.0 0.00 0.00 0.01 92 1023.7
20260508003908 50 109 0.0 0.0 0.00 0.00 0.01 89 1023.3
20260508003340 51 110 0.0 0.0 0.00 0.00 0.01 88 1023.7
20260508002734 51 110 0.0 0.0 0.00 0.00 0.01 86 1023.7
20260508002110 52 110 0.0 0.0 0.00 0.00 0.01 85 1023.3
20260508001532 52 110 0.0 0.0 0.00 0.00 0.01 85 1023.3
20260508000949 53 110 0.0 0.0 0.00 0.00 0.01 85 1023.3
20260508000335 53 110 0.0 0.0 0.00 0.00 0.01 85 1023.3
20260507235747 54 110 0.0 0.0 0.00 0.00 0.01 84 1023.3
20260507235119 54 110 0.0 0.0 0.00 0.00 0.01 84 1023.3
20260507234551 55 110 0.0 0.0 0.00 0.00 0.01 84 1023.0
20260507233938 56 110 0.0 0.0 0.00 0.00 0.01 85 1023.0
20260507233347 56 109 0.0 0.0 0.00 0.00 0.01 75 1023.0
20260507231535 57 125 0.0 0.0 0.00 0.00 0.01 81 1023.0
20260507225744 59 126 0.0 0.9 0.00 0.00 0.01 69 1022.6
20260507225120 59 127 0.0 0.0 0.00 0.00 0.01 65 1022.6
20260507224527 58 122 0.0 0.0 0.00 0.00 0.01 70 1023.0
20260507223918 58 122 0.0 0.0 0.00 0.00 0.01 71 1023.0
20260507223338 59 123 0.0 0.0 0.00 0.00 0.01 64 1023.0
20260507222719 59 120 0.0 0.9 0.00 0.00 0.01 63 1023.0
20260507221516 60 32 1.7 1.7 0.00 0.00 0.01 57 1023.0
20260507220312 61 91 0.0 0.0 0.00 0.00 0.01 57 1022.6
20260507215738 61 110 0.0 0.0 0.00 0.00 0.01 59 1022.6
20260507215144 61 100 0.9 0.9 0.00 0.00 0.01 60 1022.6
20260507213944 59 108 0.0 0.0 0.00 0.00 0.01 61 1022.6
20260507212737 61 115 0.0 0.0 0.00 0.00 0.01 61 1022.3
20260507211532 60 226 2.6 3.5 0.00 0.00 0.01 58 1022.3
20260507210928 60 90 0.0 0.9 0.00 0.00 0.01 60 1022.6
20260507210344 61 118 0.9 0.9 0.00 0.00 0.01 59 1022.6
20260507204547 59 96 0.9 0.9 0.00 0.00 0.01 61 1022.3
20260507202737 58 118 0.0 0.0 0.00 0.00 0.01 65 1022.6
20260507202152 58 117 0.0 0.0 0.00 0.00 0.01 67 1022.6
20260507201538 58 111 0.0 0.0 0.00 0.00 0.01 70 1022.6
20260507200938 59 133 1.7 2.6 0.00 0.00 0.01 66 1022.3
20260507195752 60 154 3.5 3.5 0.00 0.00 0.01 61 1022.6
20260507195151 58 82 0.0 0.0 0.00 0.00 0.01 70 1022.6
20260507194514 58 98 0.9 0.9 0.00 0.00 0.01 66 1023.0
20260507193951 58 128 0.9 0.9 0.00 0.00 0.01 64 1023.0
20260507192732 57 131 0.0 0.0 0.00 0.00 0.01 70 1023.3
20260507192146 56 138 0.9 1.7 0.00 0.00 0.01 70 1023.3
20260507191535 55 128 0.0 0.0 0.00 0.00 0.01 69 1023.3
20260507190936 56 107 0.9 0.9 0.00 0.00 0.01 70 1023.3
20260507185724 58 126 0.0 0.9 0.00 0.00 0.01 66 1023.3
20260507185150 59 129 2.6 2.6 0.00 0.00 0.01 64 1023.3
20260507184549 56 117 0.9 0.9 0.00 0.00 0.01 69 1023.3
20260507183952 57 214 1.7 1.7 0.00 0.00 0.01 70 1023.3